Regional Weather Roundup
Issued by NWS

Home | Current Version | Previous Version | Text Only | Print | Product List | Glossary On
Versions: 1 2 3 4 5 6 7 8 9 10 11 12 13 14 15 16 17 18 19 20 21 22 23 24 25 26 27 28 29 30 31 32 33 34 35 36 37 38 39 40 41 42 43 44 45 46 47 48 49 50
000
ASUS45 KPSR 252210
RWRAZ

ARIZONA HOURLY REGIONAL WEATHER ROUNDUP
NATIONAL WEATHER SERVICE PHOENIX AZ
300 PM MST SUN SEP 25 2016

NOTE: FAIR INDICATES FEW OR NO CLOUDS BELOW 12,000 FEET WITH NO
SIGNIFICANT WEATHER AND/OR OBSTRUCTIONS TO VISIBILITY.

AZZ001>003-036-252300-
NORTHWEST ARIZONA

CITY           SKY/WX    TMP DP  RH WIND       PRES   REMARKS
BULLHEAD CITY  SUNNY     91  32  12 N26G43    29.99F
KINGMAN        SUNNY     83  29  14 N20G29    30.16F
$$

AZZ004>008-015-016-018-252300-
NORTH CENTRAL ARIZONA

CITY           SKY/WX    TMP DP  RH WIND       PRES   REMARKS
GRAND CANYON   SUNNY     65  31  28 NE18G31   30.39S
PRESCOTT       SUNNY     74  34  23 NE13G18   30.22F
FLAGSTAFF      SUNNY     64  31  28 NE18G28   30.34F
PAYSON         SUNNY     77  30  18 N14       30.23S
PAGE           SUNNY     75  26  16 NE13G21   30.29F
$$

AZZ009>014-017-252300-
NORTHEAST ARIZONA

CITY           SKY/WX    TMP DP  RH WIND       PRES   REMARKS
WINSLOW        SUNNY     77  28  16 E9        30.25S
SAINT JOHNS    SUNNY     79  26  14 E14       30.22F
WINDOW ROCK    SUNNY     70  30  22 VRB6G18   30.35F
SHOW LOW       SUNNY     70  27  19 N16       30.28S
$$

AZZ023-252300-
GREATER PHOENIX AREA

CITY           SKY/WX    TMP DP  RH WIND       PRES   REMARKS
PHOENIX        MOSUNNY   94  31  10 VRB7      29.91F
BUCKEYE        SUNNY     93  32  11 SE9       29.94F
GLENDALE       MOSUNNY   95  30  10 N3        29.94F
LUKE AFB       SUNNY     94  30  10 E6        29.91F
DEER VALLEY    SUNNY     92  31  11 CALM      29.93F
SCOTTSDALE     SUNNY     93  28  10 SE5       29.95F
MESA-FALCON    MOSUNNY  N/A N/A N/A S12       29.91F
MESA-GATEWAY   MOSUNNY  N/A N/A N/A VRB5      29.93F
CHANDLER       SUNNY     93  30  10 VRB5      29.92F
$$

AZZ027-028-252300-
SOUTHWEST MARICOPA COUNTY AND PINAL COUNTY

CITY           SKY/WX    TMP DP  RH WIND       PRES   REMARKS
CASA GRANDE    SUNNY     93  34  12 N9G17     29.95F
GILA BEND      FAIR      95  28   9 NE15      29.89F
$$

AZZ503-504-507>509-252300-
SOUTHEAST ARIZONA

CITY           SKY/WX    TMP DP  RH WIND       PRES   REMARKS
TUCSON         SUNNY     90  34  13 E15G22    30.00F
DAVIS-MONTHAN  SUNNY     88  35  15 SE7       29.99S
RYAN FIELD     SUNNY     90  32  12 MISG      29.98F
NOGALES        PTSUNNY   84  36  18 E10G21    30.05F
SIERRA VISTA   PTSUNNY   80  33  18 NE8       30.11F
DOUGLAS        MOSUNNY   82  35  18 E18G26    30.06F
SAFFORD        SUNNY     88  34  14 SE10      30.03F
$$

AZZ020-021-025-026-031-252300-
SOUTHWEST ARIZONA

CITY           SKY/WX    TMP DP  RH WIND       PRES   REMARKS
YUMA           SUNNY     97  33  10 N13G22    29.88F
$$

CAZ031-033-041-043-047-048-061-252300-
SOUTHERN CALIFORNIA

CITY           SKY/WX    TMP DP  RH WIND       PRES   REMARKS
DOWNTOWN L.A.  SUNNY     91  40  16 VRB3      29.92F
L.A. AIRPORT   SUNNY     83  50  31 W12       29.92F
SAN DIEGO      SUNNY     89  43  20 NW12      29.91F
BURBANK        SUNNY     95  31  10 S10       29.94F
ONTARIO        SUNNY     97  17   5 NE24G35   29.94F
RIVERSIDE      SUNNY     98  20   6 N13G26    29.94F
PALM SPRINGS   SUNNY     97  28   8 NE9G20    29.98F
EL CENTRO NAS  SUNNY     97  30   9 NE20G25   29.92F
IMPERIAL       SUNNY     98  37  12 NE20G26   29.90F
BLYTHE         SUNNY     95  33  11 NE18G29   29.93F
NEEDLES        SUNNY     94  33  11 N26G37    30.00F
$$

NVZ020-UTZ003-252300-
SOUTHERN NEVADA-UTAH

CITY           SKY/WX    TMP DP  RH WIND       PRES   REMARKS
LAS VEGAS      SUNNY     88  23   9 NE21G26   30.15F
SALT LAKE CITY SUNNY     67  41  38 NW13      30.42F
$$

NMZ009-TXZ055-252300-
NEW MEXICO-WEST TEXAS

CITY           SKY/WX    TMP DP  RH WIND       PRES   REMARKS
ALBUQUERQUE    MOSUNNY   73  34  23 SE21G29   30.30S
EL PASO        PTSUNNY   71  46  40 E20G26    30.15R
$$


........................KEY........................
SKY/WX - SKY CONDITION/WEATHER
TMP    - TEMPERATURE IN FAHRENHEIT
DP     - DEW POINT IN FAHRENHEIT
RH     - RELATIVE HUMIDITY IN PERCENT
WIND   - DIRECTION AND SPEED IN MILES PER HOUR (MPH)
VRB    - VARIABLE WIND DIRECTION
PRES   - MEAN SEA LEVEL PRESSURE IN INCHES OF MERCURY
         F - FALLING PRESSURE   R - RISING PRESSURE
         S - STEADY PRESSURE
VSB    - VISIBILITY IN MILES
HX     - HEAT INDEX IN FAHRENHEIT
WCI    - WIND CHILL INDEX IN FAHRENHEIT
TC     - TEMPERATURE IN CELSIUS WHICH IS ALSO KNOWN AS
         TEMPERATURE IN CENTIGRADE
AFB    - AIR FORCE BASE
         LUKE AFB IS LUKE AIR FORCE BASE
         DAVIS-MONTHAN IS DAVIS-MONTHAN AIR FORCE BASE
NAS    - NAVAL AIR STATION
         EL CENTRO NAS IS EL CENTRO NAVAL AIR STATION
N/A    - NOT AVAILABLE




USA.gov is the U.S. government's official web portal to all federal, state and local government web resources and services.